DLH582 EDDF-HECA

Flight info

Callsign DLH582
Flight time N/A
Altitude 35000
Route CINDY8S/18 CINDY Z74 LAMPU DCT NOMBO Y161 MAH DCT VAVOR DCT RADIZ DCT GORPA DCT EVTON DCT SOLGU DCT AKIKA DCT MAVAR DCT BITLA DCT KPC UN139 KUMBI L612 BLT A16 CVO
Aircraft A21N/M-SDE2E3FGHIRWXY/LB1

Departure

Time 2026-05-06 16:40
Airport Frankfurt Main Airport (EDDF)

Arrival

Time N/A
Airport Cairo International Airport (HECA)
Time Latitude Longitude Altitude Speed Heading
2026-05-06 15:53 50.04813 8.57181 370 ft 0 kts 115°
2026-05-06 16:21 50.04815 8.57175 368 ft 0 kts 115°
2026-05-06 16:22 50.04818 8.57165 371 ft 2 kts 119°
2026-05-06 16:22 50.04827 8.57143 370 ft 2 kts 126°
2026-05-06 16:22 50.04838 8.57124 372 ft 2 kts 136°
2026-05-06 16:22 50.04851 8.57109 369 ft 2 kts 155°
2026-05-06 16:23 50.04867 8.57103 369 ft 2 kts 185°
2026-05-06 16:23 50.04882 8.57110 370 ft 2 kts 212°
2026-05-06 16:23 50.04886 8.57114 370 ft 0 kts 220°
2026-05-06 16:26 50.04883 8.57111 366 ft 5 kts 220°
2026-05-06 16:27 50.04844 8.57072 373 ft 7 kts 208°
2026-05-06 16:27 50.04803 8.57042 368 ft 6 kts 203°
2026-05-06 16:27 50.04764 8.57016 368 ft 6 kts 203°
2026-05-06 16:27 50.04728 8.56991 372 ft 5 kts 207°
2026-05-06 16:28 50.04701 8.56969 369 ft 8 kts 206°
2026-05-06 16:28 50.04651 8.56934 372 ft 8 kts 202°
2026-05-06 16:28 50.04603 8.56910 366 ft 7 kts 193°
2026-05-06 16:28 50.04556 8.56894 370 ft 7 kts 192°
2026-05-06 16:29 50.04512 8.56876 366 ft 6 kts 195°
2026-05-06 16:29 50.04471 8.56855 371 ft 6 kts 206°
2026-05-06 16:29 50.04447 8.56810 371 ft 5 kts 244°
2026-05-06 16:29 50.04429 8.56736 367 ft 15 kts 250°
2026-05-06 16:30 50.04387 8.56559 368 ft 17 kts 249°
2026-05-06 16:30 50.04363 8.56461 366 ft 10 kts 249°
2026-05-06 16:30 50.04331 8.56326 366 ft 10 kts 249°
2026-05-06 16:30 50.04309 8.56232 367 ft 9 kts 249°
2026-05-06 16:31 50.04285 8.56132 370 ft 15 kts 251°
2026-05-06 16:31 50.04240 8.55942 369 ft 19 kts 249°
2026-05-06 16:31 50.04194 8.55755 371 ft 18 kts 250°
2026-05-06 16:31 50.04152 8.55578 368 ft 17 kts 250°
2026-05-06 16:32 50.04113 8.55409 370 ft 16 kts 250°
2026-05-06 16:32 50.04075 8.55250 369 ft 15 kts 250°
2026-05-06 16:32 50.04038 8.55099 371 ft 15 kts 248°
2026-05-06 16:32 50.04004 8.54956 368 ft 14 kts 249°
2026-05-06 16:33 50.03972 8.54821 369 ft 13 kts 249°
2026-05-06 16:33 50.03941 8.54692 369 ft 12 kts 249°
2026-05-06 16:33 50.03911 8.54570 366 ft 12 kts 250°
2026-05-06 16:34 50.03844 8.54335 367 ft 16 kts 235°
2026-05-06 16:34 50.03788 8.54169 367 ft 18 kts 251°
2026-05-06 16:34 50.03745 8.53995 370 ft 17 kts 250°
2026-05-06 16:34 50.03706 8.53829 369 ft 16 kts 250°
2026-05-06 16:35 50.03668 8.53671 370 ft 15 kts 249°
2026-05-06 16:35 50.03629 8.53523 367 ft 14 kts 247°
2026-05-06 16:35 50.03596 8.53382 368 ft 13 kts 250°
2026-05-06 16:35 50.03565 8.53249 366 ft 13 kts 249°
2026-05-06 16:36 50.03536 8.53130 368 ft 9 kts 249°
2026-05-06 16:36 50.03515 8.53042 366 ft 8 kts 250°
2026-05-06 16:36 50.03493 8.52947 370 ft 12 kts 251°
2026-05-06 16:36 50.03456 8.52809 369 ft 11 kts 245°
2026-05-06 16:37 50.03436 8.52737 371 ft 3 kts 247°
2026-05-06 16:37 50.03435 8.52735 371 ft 0 kts 247°
2026-05-06 16:37 50.03426 8.52702 368 ft 12 kts 247°
2026-05-06 16:37 50.03385 8.52603 366 ft 10 kts 214°
2026-05-06 16:38 50.03343 8.52594 368 ft 0 kts 178°
2026-05-06 16:39 50.03327 8.52595 368 ft 16 kts 178°
2026-05-06 16:39 50.02974 8.52596 363 ft 83 kts 180°
2026-05-06 16:40 50.02175 8.52606 370 ft 147 kts 179°
2026-05-06 16:40 50.00978 8.52640 469 ft 187 kts 177°
2026-05-06 16:40 49.99618 8.52731 817 ft 206 kts 176°
2026-05-06 16:40 49.98138 8.52834 1214 ft 228 kts 177°
2026-05-06 16:41 49.96569 8.53667 1576 ft 254 kts 144°
2026-05-06 16:41 49.95374 8.55838 1998 ft 278 kts 122°
2026-05-06 16:41 49.94433 8.58547 2707 ft 287 kts 113°
2026-05-06 16:41 49.93958 8.61623 3493 ft 301 kts 97°
2026-05-06 16:42 49.93808 8.64996 3904 ft 328 kts 93°
2026-05-06 16:42 49.93433 8.68659 4078 ft 357 kts 112°
2026-05-06 16:42 49.92087 8.71894 4726 ft 358 kts 139°
2026-05-06 16:42 49.90144 8.74163 5997 ft 343 kts 148°
2026-05-06 16:43 49.88380 8.76490 7210 ft 337 kts 130°
2026-05-06 16:43 49.87075 8.79467 8457 ft 328 kts 123°
2026-05-06 16:43 49.85935 8.82504 9626 ft 323 kts 122°
2026-05-06 16:43 49.84818 8.85575 10342 ft 330 kts 121°
2026-05-06 16:44 49.83681 8.88710 10701 ft 348 kts 121°
2026-05-06 16:44 49.82449 8.92103 10791 ft 373 kts 121°
2026-05-06 16:44 49.81148 8.95680 11261 ft 383 kts 120°
2026-05-06 16:44 49.79844 8.99266 11996 ft 384 kts 121°
2026-05-06 16:45 49.78528 9.02878 12683 ft 386 kts 121°
2026-05-06 16:45 49.77202 9.06522 13335 ft 389 kts 120°
2026-05-06 16:45 49.76095 9.10369 13906 ft 395 kts 110°
2026-05-06 16:45 49.75338 9.14471 14459 ft 399 kts 107°
2026-05-06 16:46 49.74380 9.18492 14990 ft 400 kts 119°
2026-05-06 16:46 49.72897 9.22119 15578 ft 400 kts 127°
2026-05-06 16:46 49.71183 9.25517 16144 ft 402 kts 132°
2026-05-06 16:46 49.69346 9.28788 16692 ft 404 kts 134°
2026-05-06 16:47 49.67450 9.31999 17229 ft 407 kts 135°
2026-05-06 16:47 49.65527 9.35221 17776 ft 409 kts 135°
2026-05-06 16:47 49.63580 9.38449 18239 ft 412 kts 137°
2026-05-06 16:47 49.61424 9.41382 18660 ft 413 kts 144°
2026-05-06 16:48 49.59066 9.43938 19092 ft 415 kts 148°
2026-05-06 16:48 49.56633 9.46334 19586 ft 415 kts 150°
2026-05-06 16:48 49.54153 9.48641 20039 ft 417 kts 151°
2026-05-06 16:48 49.51648 9.50905 20454 ft 420 kts 152°
2026-05-06 16:49 49.49110 9.53176 20860 ft 422 kts 152°
2026-05-06 16:49 49.46562 9.55458 21289 ft 425 kts 152°
2026-05-06 16:49 49.44036 9.57729 21719 ft 427 kts 152°
2026-05-06 16:49 49.41467 9.60048 22146 ft 429 kts 152°
2026-05-06 16:50 49.38881 9.62389 22567 ft 432 kts 151°
2026-05-06 16:50 49.36299 9.64770 22977 ft 435 kts 149°
2026-05-06 16:50 49.33842 9.67504 23412 ft 439 kts 142°
2026-05-06 16:50 49.31556 9.70608 23895 ft 438 kts 139°
2026-05-06 16:51 49.29337 9.73837 24291 ft 439 kts 138°
2026-05-06 16:51 49.27159 9.77128 24608 ft 441 kts 137°
2026-05-06 16:51 49.24988 9.80467 24911 ft 443 kts 137°
2026-05-06 16:51 49.22813 9.83825 25159 ft 446 kts 138°
2026-05-06 16:52 49.20620 9.87201 25454 ft 448 kts 138°
2026-05-06 16:52 49.18410 9.90585 25787 ft 448 kts 138°
2026-05-06 16:52 49.16237 9.93898 26227 ft 446 kts 139°
2026-05-06 16:52 49.14040 9.97234 26706 ft 443 kts 139°
2026-05-06 16:53 49.11854 10.00545 27165 ft 440 kts 139°
2026-05-06 16:53 49.09679 10.03831 27600 ft 438 kts 139°
2026-05-06 16:53 49.07509 10.07105 28012 ft 436 kts 139°
2026-05-06 16:53 49.05338 10.10323 28392 ft 435 kts 140°
2026-05-06 16:54 49.03138 10.13486 28764 ft 434 kts 141°
2026-05-06 16:54 49.00954 10.16572 29080 ft 432 kts 141°
2026-05-06 16:54 48.98739 10.19678 29303 ft 434 kts 141°
2026-05-06 16:54 48.96517 10.22789 29605 ft 434 kts 141°
2026-05-06 16:55 48.94303 10.25895 29945 ft 432 kts 141°
2026-05-06 16:55 48.92095 10.29000 30201 ft 432 kts 141°
2026-05-06 16:55 48.89890 10.32105 30433 ft 432 kts 142°
2026-05-06 16:55 48.87688 10.35206 30722 ft 432 kts 142°
2026-05-06 16:56 48.85485 10.38308 30985 ft 432 kts 142°
2026-05-06 16:56 48.83289 10.41409 31255 ft 432 kts 141°
2026-05-06 16:56 48.81138 10.44623 31406 ft 435 kts 140°
2026-05-06 16:56 48.79036 10.47939 31657 ft 436 kts 139°
2026-05-06 16:57 48.76962 10.51293 31909 ft 436 kts 138°
2026-05-06 16:57 48.74892 10.54661 32017 ft 437 kts 140°
2026-05-06 16:57 48.72815 10.58034 32200 ft 437 kts 140°
2026-05-06 16:57 48.70736 10.61390 32396 ft 436 kts 140°
2026-05-06 16:58 48.68653 10.64730 32571 ft 435 kts 140°
2026-05-06 16:58 48.66568 10.68058 32776 ft 435 kts 141°
2026-05-06 16:58 48.64505 10.71337 32986 ft 435 kts 141°
2026-05-06 16:58 48.62410 10.74661 33187 ft 435 kts 141°
2026-05-06 16:59 48.60327 10.77959 33354 ft 434 kts 141°
2026-05-06 16:59 48.58240 10.81267 33498 ft 434 kts 141°
2026-05-06 16:59 48.56163 10.84577 33584 ft 435 kts 140°
2026-05-06 17:00 48.51981 10.91257 33702 ft 438 kts 141°
2026-05-06 17:00 48.49918 10.94553 33870 ft 437 kts 141°
2026-05-06 17:00 48.47825 10.97872 34024 ft 436 kts 141°
2026-05-06 17:01 48.43608 11.04467 34198 ft 437 kts 141°
2026-05-06 17:01 48.39370 11.11048 34341 ft 438 kts 141°
2026-05-06 17:02 48.35117 11.17640 34553 ft 439 kts 141°
2026-05-06 17:02 48.30847 11.24251 34657 ft 442 kts 141°
2026-05-06 17:03 48.26663 11.31105 34767 ft 452 kts 133°
2026-05-06 17:03 48.23256 11.39067 34828 ft 459 kts 128°
2026-05-06 17:04 48.20036 11.47377 34835 ft 460 kts 127°
2026-05-06 17:04 48.16859 11.55700 34838 ft 459 kts 127°
2026-05-06 17:05 48.13666 11.63979 34815 ft 460 kts 127°
2026-05-06 17:05 48.10455 11.72220 34826 ft 462 kts 127°
2026-05-06 17:06 48.07215 11.80500 34827 ft 461 kts 127°
2026-05-06 17:06 48.03966 11.88781 34817 ft 461 kts 128°
2026-05-06 17:07 48.00703 11.97068 34771 ft 462 kts 128°
2026-05-06 17:07 47.97429 12.05355 34802 ft 464 kts 128°
2026-05-06 17:08 47.94024 12.13524 34770 ft 457 kts 135°
2026-05-06 17:08 47.89705 12.20161 34769 ft 445 kts 146°
2026-05-06 17:09 47.85018 12.26164 34745 ft 443 kts 148°
2026-05-06 17:09 47.80276 12.32015 34741 ft 443 kts 148°
2026-05-06 17:10 47.75538 12.37865 34707 ft 442 kts 148°
2026-05-06 17:10 47.70814 12.43727 34717 ft 442 kts 148°
2026-05-06 17:11 47.66090 12.49588 34711 ft 442 kts 148°
2026-05-06 17:11 47.61534 12.55722 34723 ft 449 kts 142°
2026-05-06 17:12 47.57216 12.62450 34714 ft 451 kts 141°
2026-05-06 17:12 47.53686 12.68102 34716 ft 449 kts 140°
2026-05-06 17:13 47.49426 12.74931 34688 ft 450 kts 140°
2026-05-06 17:13 47.44490 12.82790 34720 ft 449 kts 141°
2026-05-06 17:14 47.40922 12.88436 34738 ft 448 kts 141°
2026-05-06 17:14 47.36663 12.95163 34743 ft 448 kts 141°
2026-05-06 17:15 47.32419 13.01852 34739 ft 444 kts 140°
2026-05-06 17:15 47.28220 13.08454 34771 ft 444 kts 141°
2026-05-06 17:16 47.23980 13.15095 34752 ft 445 kts 140°
2026-05-06 17:16 47.19735 13.21731 34795 ft 446 kts 140°
2026-05-06 17:17 47.15477 13.28372 34798 ft 446 kts 141°
2026-05-06 17:17 47.11212 13.35007 34805 ft 447 kts 140°
2026-05-06 17:18 47.06935 13.41644 34827 ft 448 kts 140°
2026-05-06 17:18 47.02636 13.48299 34831 ft 449 kts 140°
2026-05-06 17:19 46.98342 13.54932 34843 ft 449 kts 140°
2026-05-06 17:19 46.94034 13.61568 34846 ft 450 kts 140°
2026-05-06 17:20 46.89729 13.68177 34845 ft 453 kts 140°
2026-05-06 17:20 46.85362 13.74868 34851 ft 455 kts 140°
2026-05-06 17:21 46.80994 13.81550 34848 ft 455 kts 140°
2026-05-06 17:21 46.76620 13.88224 34855 ft 454 kts 140°
2026-05-06 17:22 46.72245 13.94877 34838 ft 454 kts 139°
2026-05-06 17:22 46.67871 14.01517 34857 ft 452 kts 139°
2026-05-06 17:23 46.63506 14.08126 34856 ft 452 kts 140°
2026-05-06 17:23 46.59165 14.14678 34857 ft 452 kts 140°
2026-05-06 17:24 46.54801 14.21250 34858 ft 451 kts 140°
2026-05-06 17:24 46.50439 14.27803 34870 ft 452 kts 140°
2026-05-06 17:25 46.46060 14.34365 34863 ft 453 kts 139°
2026-05-06 17:25 46.41668 14.40933 34877 ft 453 kts 140°
2026-05-06 17:26 46.37280 14.47477 34912 ft 453 kts 140°
2026-05-06 17:26 46.32882 14.54020 34910 ft 453 kts 140°
2026-05-06 17:27 46.28478 14.60555 34912 ft 455 kts 140°
2026-05-06 17:27 46.24062 14.67088 34912 ft 458 kts 140°
2026-05-06 17:28 46.19611 14.73663 34916 ft 457 kts 140°
2026-05-06 17:28 46.15162 14.80219 34913 ft 457 kts 140°
2026-05-06 17:29 46.10709 14.86764 34892 ft 457 kts 139°
2026-05-06 17:29 46.06267 14.93272 34908 ft 459 kts 139°
2026-05-06 17:30 46.01790 14.99820 34907 ft 459 kts 139°
2026-05-06 17:30 45.97297 15.06375 34920 ft 459 kts 139°
2026-05-06 17:31 45.92817 15.12899 34913 ft 458 kts 140°
2026-05-06 17:31 45.88331 15.19408 34906 ft 458 kts 140°
2026-05-06 17:32 45.83835 15.25916 34913 ft 459 kts 140°
2026-05-06 17:32 45.79333 15.32422 34909 ft 459 kts 140°
2026-05-06 17:33 45.74887 15.38995 34913 ft 460 kts 138°
2026-05-06 17:33 45.70567 15.45704 34911 ft 460 kts 137°
2026-05-06 17:34 45.66236 15.52468 34908 ft 460 kts 137°
2026-05-06 17:34 45.61890 15.59202 34907 ft 460 kts 137°
2026-05-06 17:35 45.57529 15.65919 34908 ft 460 kts 137°
2026-05-06 17:35 45.53173 15.72603 34911 ft 460 kts 138°
2026-05-06 17:36 45.46650 15.82583 34909 ft 460 kts 137°
2026-05-06 17:36 45.42273 15.89261 34911 ft 460 kts 138°
2026-05-06 17:37 45.37898 15.95921 34910 ft 460 kts 138°
2026-05-06 17:37 45.33513 16.02579 34914 ft 460 kts 138°
2026-05-06 17:38 45.29132 16.09216 34913 ft 459 kts 137°
2026-05-06 17:38 45.24758 16.15826 34917 ft 459 kts 137°
2026-05-06 17:39 45.20400 16.22395 34920 ft 459 kts 137°
2026-05-06 17:39 45.16018 16.28984 34917 ft 460 kts 138°
2026-05-06 17:40 45.11620 16.35581 34909 ft 460 kts 138°
2026-05-06 17:40 45.07218 16.42168 34920 ft 460 kts 138°
2026-05-06 17:41 45.02830 16.48721 34920 ft 460 kts 138°
2026-05-06 17:41 44.98417 16.55294 34926 ft 460 kts 138°
2026-05-06 17:42 44.94008 16.61846 34925 ft 460 kts 139°
2026-05-06 17:42 44.89575 16.68416 34926 ft 464 kts 139°
2026-05-06 17:43 44.85104 16.75024 34925 ft 466 kts 139°
2026-05-06 17:43 44.80653 16.81594 34929 ft 465 kts 139°
2026-05-06 17:44 44.76181 16.88178 34930 ft 465 kts 139°
2026-05-06 17:44 44.71687 16.94739 34928 ft 465 kts 143°
2026-05-06 17:45 44.66858 17.00780 34933 ft 465 kts 146°
2026-05-06 17:45 44.61942 17.06686 34945 ft 465 kts 146°
2026-05-06 17:46 44.57003 17.12559 34943 ft 465 kts 146°
2026-05-06 17:46 44.52070 17.18422 34945 ft 465 kts 146°
2026-05-06 17:47 44.47128 17.24289 34948 ft 468 kts 146°
2026-05-06 17:47 44.42162 17.30181 34958 ft 466 kts 147°
2026-05-06 17:48 44.37211 17.36045 34962 ft 465 kts 147°
2026-05-06 17:48 44.32296 17.41847 34969 ft 465 kts 147°
2026-05-06 17:49 44.27346 17.47675 34964 ft 466 kts 146°
2026-05-06 17:49 44.22376 17.53513 34976 ft 467 kts 146°
2026-05-06 17:50 44.17404 17.59344 34978 ft 465 kts 146°
2026-05-06 17:50 44.12451 17.65142 34986 ft 465 kts 146°
2026-05-06 17:51 44.07617 17.71073 34980 ft 467 kts 143°
2026-05-06 17:51 44.02818 17.77216 34991 ft 469 kts 143°
2026-05-06 17:52 43.98024 17.83352 34992 ft 468 kts 143°
2026-05-06 17:52 43.93210 17.89462 34996 ft 469 kts 143°
2026-05-06 17:53 43.88383 17.95553 34991 ft 469 kts 143°
2026-05-06 17:53 43.83577 18.01599 35001 ft 469 kts 143°
2026-05-06 17:54 43.78741 18.07670 34997 ft 469 kts 143°
2026-05-06 17:54 43.73902 18.13733 35002 ft 469 kts 143°
2026-05-06 17:55 43.69871 18.18773 35001 ft 470 kts 143°
2026-05-06 17:55 43.64197 18.25849 35007 ft 470 kts 143°
2026-05-06 17:56 43.60148 18.30890 35008 ft 470 kts 143°
2026-05-06 17:56 43.55280 18.36936 35035 ft 470 kts 143°
2026-05-06 17:57 43.50417 18.42963 35041 ft 470 kts 143°
2026-05-06 17:57 43.45559 18.48966 35040 ft 472 kts 143°
2026-05-06 17:58 43.40668 18.54999 35043 ft 472 kts 143°
2026-05-06 17:58 43.35771 18.61029 35042 ft 472 kts 143°
2026-05-06 17:59 43.30863 18.67056 35041 ft 472 kts 143°
2026-05-06 17:59 43.25991 18.73026 35047 ft 472 kts 143°
2026-05-06 18:00 43.21054 18.79059 35034 ft 472 kts 142°
2026-05-06 18:00 43.16171 18.85013 35053 ft 473 kts 142°
2026-05-06 18:01 43.11253 18.91001 35052 ft 473 kts 142°
2026-05-06 18:01 43.06327 18.96984 35061 ft 473 kts 142°
2026-05-06 18:02 43.01394 19.02961 35059 ft 473 kts 142°
2026-05-06 18:02 42.96500 19.08877 35069 ft 472 kts 142°
2026-05-06 18:03 42.91585 19.14805 35064 ft 471 kts 142°
2026-05-06 18:03 42.86667 19.20723 35076 ft 471 kts 142°
2026-05-06 18:04 42.81739 19.26642 35066 ft 471 kts 142°
2026-05-06 18:04 42.76819 19.32537 35071 ft 471 kts 142°
2026-05-06 18:05 42.71892 19.38414 35072 ft 472 kts 142°
2026-05-06 18:05 42.66950 19.44311 35075 ft 472 kts 142°
2026-05-06 18:06 42.62046 19.50157 35069 ft 471 kts 142°
2026-05-06 18:06 42.57117 19.56017 35075 ft 470 kts 142°
2026-05-06 18:07 42.52166 19.61823 35054 ft 469 kts 144°
2026-05-06 18:07 42.47082 19.67391 35077 ft 470 kts 145°
2026-05-06 18:08 42.41983 19.72881 35080 ft 471 kts 145°
2026-05-06 18:08 42.36844 19.78427 35082 ft 471 kts 145°
2026-05-06 18:09 42.31726 19.83963 35077 ft 471 kts 144°
2026-05-06 18:09 42.26602 19.89496 35073 ft 471 kts 144°
2026-05-06 18:10 42.21475 19.95021 35075 ft 472 kts 144°
2026-05-06 18:10 42.16337 20.00546 35074 ft 472 kts 144°
2026-05-06 18:11 42.11189 20.06071 35078 ft 473 kts 144°
2026-05-06 18:11 42.06074 20.11548 35069 ft 473 kts 144°
2026-05-06 18:12 42.00920 20.17055 35070 ft 473 kts 144°
2026-05-06 18:12 41.95740 20.22578 35080 ft 476 kts 144°
2026-05-06 18:13 41.90547 20.28104 35078 ft 476 kts 144°
2026-05-06 18:13 41.85346 20.33634 35073 ft 476 kts 144°
2026-05-06 18:14 41.80145 20.39148 35076 ft 476 kts 144°
2026-05-06 18:14 41.74979 20.44603 35078 ft 477 kts 144°
2026-05-06 18:15 41.69761 20.50115 35060 ft 478 kts 144°
2026-05-06 18:15 41.64534 20.55631 35063 ft 477 kts 144°
2026-05-06 18:16 41.59315 20.61139 35056 ft 477 kts 144°
2026-05-06 18:16 41.54102 20.66636 35062 ft 477 kts 144°
2026-05-06 18:17 41.48879 20.72133 35064 ft 478 kts 144°
2026-05-06 18:17 41.43671 20.77602 35075 ft 479 kts 144°
2026-05-06 18:18 41.38434 20.83092 35082 ft 479 kts 144°
2026-05-06 18:18 41.33202 20.88563 35087 ft 478 kts 144°
2026-05-06 18:19 41.27957 20.94036 35076 ft 478 kts 144°
2026-05-06 18:19 41.22713 20.99497 35086 ft 480 kts 144°
2026-05-06 18:20 41.17451 21.04964 35070 ft 480 kts 144°
2026-05-06 18:20 41.12181 21.10431 35059 ft 480 kts 144°
2026-05-06 18:21 41.06915 21.15880 35045 ft 480 kts 144°
2026-05-06 18:21 41.01667 21.21300 35034 ft 480 kts 144°
2026-05-06 18:22 40.96389 21.26739 35039 ft 480 kts 144°
2026-05-06 18:22 40.91102 21.32177 35037 ft 481 kts 144°
2026-05-06 18:23 40.85868 21.37680 35037 ft 481 kts 141°
2026-05-06 18:23 40.80841 21.43537 35037 ft 482 kts 139°
2026-05-06 18:24 40.75895 21.49445 35034 ft 482 kts 140°
2026-05-06 18:24 40.70904 21.55350 35034 ft 482 kts 140°
2026-05-06 18:25 40.65894 21.61215 35033 ft 482 kts 140°
2026-05-06 18:25 40.60872 21.67066 35036 ft 482 kts 140°
2026-05-06 18:26 40.55854 21.72898 35046 ft 482 kts 140°
2026-05-06 18:26 40.50825 21.78735 35054 ft 482 kts 140°
2026-05-06 18:27 40.45803 21.84551 35061 ft 479 kts 140°
2026-05-06 18:27 40.40795 21.90341 35068 ft 479 kts 140°
2026-05-06 18:28 40.35821 21.96078 35073 ft 479 kts 140°
2026-05-06 18:28 40.30813 22.01843 35070 ft 479 kts 140°
2026-05-06 18:29 40.25777 22.07628 35062 ft 479 kts 140°
2026-05-06 18:29 40.20796 22.13338 35051 ft 479 kts 139°
2026-05-06 18:30 40.15761 22.19098 35049 ft 477 kts 140°
2026-05-06 18:30 40.10781 22.24785 35040 ft 477 kts 140°
2026-05-06 18:31 40.05779 22.30483 35039 ft 477 kts 140°
2026-05-06 18:31 40.00771 22.36179 35033 ft 477 kts 140°
2026-05-06 18:32 39.95750 22.41877 35032 ft 478 kts 140°
2026-05-06 18:32 39.90767 22.47520 35037 ft 476 kts 140°
2026-05-06 18:33 39.85781 22.53156 35034 ft 474 kts 140°
2026-05-06 18:33 39.80795 22.58781 35037 ft 473 kts 140°
2026-05-06 18:34 39.75807 22.64395 35037 ft 473 kts 140°
2026-05-06 18:34 39.70819 22.70000 35031 ft 474 kts 140°
2026-05-06 18:35 39.65832 22.75593 35037 ft 474 kts 140°
2026-05-06 18:35 39.60868 22.81147 35036 ft 474 kts 140°
2026-05-06 18:36 39.55869 22.86731 35039 ft 473 kts 140°
2026-05-06 18:36 39.50876 22.92297 35039 ft 473 kts 140°
2026-05-06 18:37 39.46709 22.96933 35040 ft 473 kts 140°
2026-05-06 18:37 39.41714 23.02481 35034 ft 473 kts 140°
2026-05-06 18:38 39.36733 23.08003 35033 ft 473 kts 140°
2026-05-06 18:38 39.31729 23.13539 35037 ft 474 kts 140°
2026-05-06 18:39 39.26703 23.19088 35038 ft 474 kts 140°
2026-05-06 18:40 39.19174 23.27382 35041 ft 474 kts 140°
2026-05-06 18:40 39.14189 23.32860 35038 ft 474 kts 140°
2026-05-06 18:41 39.09150 23.38386 35049 ft 475 kts 141°
2026-05-06 18:41 39.04104 23.43908 35032 ft 475 kts 141°
2026-05-06 18:42 38.99054 23.49426 35028 ft 476 kts 141°
2026-05-06 18:42 38.94002 23.54934 35034 ft 476 kts 141°
2026-05-06 18:43 38.88947 23.60435 35039 ft 476 kts 141°
2026-05-06 18:43 38.83889 23.65928 35043 ft 477 kts 141°
2026-05-06 18:44 38.78847 23.71394 35041 ft 477 kts 141°
2026-05-06 18:44 38.73768 23.76889 35053 ft 477 kts 141°
2026-05-06 18:45 38.68693 23.82369 35052 ft 477 kts 141°
2026-05-06 18:45 38.63610 23.87847 35058 ft 477 kts 141°
2026-05-06 18:46 38.58525 23.93317 35057 ft 477 kts 141°
2026-05-06 18:46 38.53439 23.98778 35065 ft 477 kts 141°
2026-05-06 18:47 38.48387 24.04192 35064 ft 477 kts 141°
2026-05-06 18:47 38.43295 24.09638 35070 ft 478 kts 141°
2026-05-06 18:48 38.38188 24.15089 35062 ft 479 kts 141°
2026-05-06 18:48 38.33074 24.20538 35064 ft 479 kts 141°
2026-05-06 18:49 38.27954 24.25983 35071 ft 479 kts 141°
2026-05-06 18:49 38.22834 24.31418 35067 ft 479 kts 141°
2026-05-06 18:50 38.17712 24.36845 35068 ft 479 kts 141°
2026-05-06 18:50 38.12585 24.42266 35067 ft 480 kts 141°
2026-05-06 18:51 38.07480 24.47654 35073 ft 480 kts 141°
2026-05-06 18:51 38.02334 24.53074 35068 ft 480 kts 141°
2026-05-06 18:52 37.97185 24.58489 35074 ft 480 kts 141°
2026-05-06 18:52 37.92033 24.63896 35071 ft 481 kts 141°
2026-05-06 18:53 37.86877 24.69296 35072 ft 481 kts 141°
2026-05-06 18:53 37.81723 24.74686 35071 ft 480 kts 141°
2026-05-06 18:54 37.76566 24.80068 35073 ft 480 kts 141°
2026-05-06 18:54 37.71410 24.85438 35073 ft 480 kts 142°
2026-05-06 18:55 37.66254 24.90799 35073 ft 480 kts 142°
2026-05-06 18:55 37.61130 24.96116 35071 ft 480 kts 142°
2026-05-06 18:56 37.55967 25.01465 35080 ft 480 kts 142°
2026-05-06 18:56 37.50785 25.06822 35078 ft 482 kts 142°
2026-05-06 18:57 37.45601 25.12172 35070 ft 482 kts 141°
2026-05-06 18:57 37.40408 25.17522 35074 ft 481 kts 142°
2026-05-06 18:58 37.35217 25.22859 35079 ft 481 kts 142°
2026-05-06 18:58 37.30059 25.28153 35074 ft 481 kts 142°
2026-05-06 18:59 37.24870 25.33469 35083 ft 481 kts 142°
2026-05-06 18:59 37.19664 25.38792 35076 ft 483 kts 142°
2026-05-06 19:00 37.14460 25.44103 35075 ft 482 kts 142°
2026-05-06 19:00 37.09253 25.49409 35083 ft 482 kts 142°
2026-05-06 19:01 37.04050 25.54701 35086 ft 482 kts 142°
2026-05-06 19:01 36.98843 25.59986 35084 ft 482 kts 142°
2026-05-06 19:02 36.93630 25.65267 35082 ft 482 kts 142°
2026-05-06 19:02 36.88451 25.70506 35080 ft 482 kts 142°
2026-05-06 19:03 36.83224 25.75783 35080 ft 482 kts 142°
2026-05-06 19:03 36.78006 25.81042 35087 ft 482 kts 142°
2026-05-06 19:04 36.72782 25.86297 35088 ft 482 kts 142°
2026-05-06 19:04 36.67590 25.91511 35094 ft 482 kts 142°
2026-05-06 19:05 36.62365 25.96748 35089 ft 482 kts 142°
2026-05-06 19:05 36.57129 26.01987 35097 ft 482 kts 142°
2026-05-06 19:06 36.51902 26.07207 35098 ft 482 kts 142°
2026-05-06 19:06 36.46677 26.12416 35099 ft 482 kts 142°
2026-05-06 19:07 36.41440 26.17629 35097 ft 482 kts 142°
2026-05-06 19:07 36.36205 26.22829 35085 ft 482 kts 142°
2026-05-06 19:08 36.30998 26.27993 35099 ft 482 kts 142°
2026-05-06 19:08 36.25756 26.33182 35100 ft 482 kts 142°
2026-05-06 19:09 36.20511 26.38366 35095 ft 482 kts 142°
2026-05-06 19:09 36.15268 26.43537 35101 ft 482 kts 142°
2026-05-06 19:10 36.10032 26.48693 35101 ft 482 kts 142°
2026-05-06 19:10 36.04781 26.53855 35099 ft 482 kts 142°
2026-05-06 19:11 35.99565 26.58973 35099 ft 481 kts 142°
2026-05-06 19:11 35.94313 26.64118 35098 ft 482 kts 142°
2026-05-06 19:12 35.89046 26.69268 35101 ft 482 kts 142°
2026-05-06 19:12 35.83823 26.74366 35099 ft 482 kts 142°
2026-05-06 19:13 35.78567 26.79488 35100 ft 482 kts 143°